sat.trackr.live / text

‹ back to catalog

STARLINK-11632 [DTC]

NORAD 63108 · 2025-039E

PAYLOAD ACTIVE UNKNOWN

§ Identity

Operator
Country
US
Launch date
2025-02-27
Launch site
AFETR
Launch vehicle
Mass (kg)
RCS (m²)

Purposes: comms

External: N2YO · Heavens-Above · Gunter

§ Orbital elements

Epoch: 2026-05-24T23:42:35.767008Z

Period
91.66 min
Inclination
43.0001°
Eccentricity
0.0005557
Mean motion
15.70992771 rev/d
Perigee alt
352.3 km
Apogee alt
359.8 km
Semi-major
6,734.2 km
B*
1.7103e-3
RAAN
137.0851°
Arg perigee
288.8796°
Mean anomaly
71.1469°
Rev number
7,161

§ Raw data

STARLINK-11632 [DTC]1 63108U 25039E   26144.98791397  .00226669  00000+0  17103-2 0  99912 63108  43.0001 137.0851 0005557 288.8796  71.1469 15.70992771 71614

JSON: /api/v1/satellites/63108 · /tle

For live sub-satellite position, see the globe view (requires WebGL).

§ Visibility from observer

Set your observer location to see the next 7 days of passes ≥ 10°. The values pass through the URL so the page stays shareable.

No JS? Fill the form by hand. The geolocation button needs JavaScript.